Regional Weather Roundup
Issued by NWS

Home | Current Version | Previous Version | Text Only | Print | Product List | Glossary On
Versions: 1 2 3 4 5 6 7 8 9 10 11 12 13 14 15 16 17 18 19 20 21 22 23 24 25 26 27 28 29 30 31 32 33 34 35 36 37 38 39 40 41 42 43 44 45 46 47 48 49 50
721
ASUS44 KLIX 050711
RWRLA
LOUISIANA WEATHER ROUNDUP
NATIONAL WEATHER SERVICE NEW ORLEANS LA
200 AM CDT THU MAY 05 2016

NOTE: "FAIR" INDICATES FEW OR NO CLOUDS BELOW 12,000 FEET WITH NO
      SIGNIFICANT WEATHER AND/OR OBSTRUCTIONS TO VISIBILITY.
      SKY/WX - SKY CONDITION AND SIGNIFICANT WEATHER.
      TMP - AIR TEMPERATURE.    DP   - DEWPOINT TEMPERATURE.
      RH  - RELATIVE HUMIDITY.  PRES - PRESSURE.
      HX  - HEAT INDEX.         WCI  - WIND CHILL INDEX.

*  THESE STATIONS ARE NOT NWS OR FAA STATIONS AND ARE NOT UNDER
   NWS QUALITY CONTROL.

LAZ040-048-061>063-065-066-069-050800-
SOUTHEAST LOUISIANA

CITY           SKY/WX    TMP DP  RH WIND       PRES   REMARKS
N.O. AUDUBON     N/A     64  58  80 MISG        N/A
N.O. INTL ARPT CLEAR     65  55  70 W8        29.88F
N.O. LAKEFRONT CLEAR     68  56  65 W13       29.88F
N.O. DOWNTOWN* FAIR      68  55  63 VRB3      29.89F
RESERVE*       FAIR      63  56  77 W7        29.89F
SLIDELL        CLEAR     61  55  81 CALM      29.86F
BATON ROUGE    CLEAR     62  55  77 W6        29.89F
BOOTHVILLE       N/A     65  57  75 W6        29.89F
BELLE CHASSE   PTCLDY    62  55  77 W7        29.88F
BOGALUSA*      FAIR      63  52  67 W6        29.87F
GALLIANO*      SUNNY     59  58  95 CALM      29.90F
NEW ROADS*     FAIR      61  56  83 W3        29.89F
GONZALES*      FAIR      63  55  73 W3        29.88F
HAMMOND*       CLEAR     61  52  72 W3        29.87F
HOUMA*           N/A     59  58  94 CALM      29.90F
PORT FOURCHON* SUNNY     72  57  60 W8        29.91F

$$

LAZ041-044-053-054-050800-
SOUTHWEST LOUISIANA

CITY           SKY/WX    TMP DP  RH WIND       PRES   REMARKS
LAKE CHARLES   PTCLDY    64  56  75 NW3       29.93F
LAFAYETTE      CLEAR     67  57  70 W7        29.91F
PATTERSON      NOT AVBL
SALT POINT       N/A     71  65  81 VRB5      29.90F
NEW IBERIA     PTCLDY    63  57  81 W5        29.91F
CHENAULT AIRPK CLEAR     64  56  75 NW5       29.93S

$$

LAZ027-028-050800-
CENTRAL LOUISIANA

CITY           SKY/WX    TMP DP  RH WIND       PRES   REMARKS
FORT POLK      CLEAR     62  56  83 NW5       29.92F
ALEXANDRIA INT CLEAR     60  56  86 NW5       29.90S
ALEXANDRIA     CLEAR     60  55  83 W5        29.91R

$$

LAZ001-002-050800-
NORTHWEST LOUISIANA

CITY           SKY/WX    TMP DP  RH WIND       PRES   REMARKS
SHREVEPORT     CLEAR     63  54  72 NW6       29.95R
BARKSDALE AFB  CLEAR     60  53  79 N3        29.94S
DTN SHREVEPORT CLEAR     65  52  62 N3        29.95S

$$

LAZ014-016-050800-
NORTHEAST LOUISIANA

CITY           SKY/WX    TMP DP  RH WIND       PRES   REMARKS
MONROE         CLEAR     62  54  74 N7        29.92S
TALLULAH       CLEAR     65  56  72 N9        29.88S

$$





USA.gov is the U.S. government's official web portal to all federal, state and local government web resources and services.